Weather History for KINL - February, 2014

Change the Weather History Date:

Wednesday, February 5, 2014

  Actual Average Record
Temperature  
Mean Temperature -12 °F 7 °F  
Max Temperature -2 °F 19 °F 49 °F (2005)
Min Temperature -23 °F -5 °F -40 °F (1907)
Degree Days  
Heating Degree Days 77 58  
Month to date heating degree days 359 293  
Since 1 July heating degree days 6974 6346  
Cooling Degree Days 0 0  
Month to date cooling degree days 0 0  
Year to date cooling degree days 0 0  
Moisture  
Dew Point -13 °F    
Average Humidity 72    
Maximum Humidity 86    
Minimum Humidity 58    
Precipitation  
Precipitation T in 0.02 in 0.77 in (1946)
Month to date precipitation 0.03 0.08  
Year to date precipitation 0.85 0.70  
Snow  
Snow 0.10 in 0.40 in 7.10 in (1951)
Month to date snowfall 0.6 1.9  
Since 1 July snowfall 54.8 47.9  
Snow Depth 20.00 in    
Sea Level Pressure  
Sea Level Pressure 30.53 in    
Wind  
Wind Speed 7 mph (WNW)    
Max Wind Speed 15 mph    
Max Gust Speed 19 mph    
Visibility 9 miles    
Events Snow    
T = Trace of Precipitation, MM = Missing Value Source: NWS Daily Summary

Daily Weather History Graph

Daily Weather History Graph

Search for Another Location

Airport or City:

Trip Planner

Search our weather history database for the weather conditions in past years. The results will help you decide how hot, cold, wet, or windy it might be!

Date:

Astronomy

Feb. 05, 2014 Rise Set
Actual Time 7:37 AM CST 5:18 PM CST
Civil Twilight 7:03 AM CST 5:52 PM CST
Nautical Twilight 6:26 AM CST 6:29 PM CST
Astronomical Twilight 5:49 AM CST 7:06 PM CST
Moon 10:17 AM CST (2/5) No Moon Set
Length of Visible Light 10h 48m
Length of Day
9h 41m
Waxing Crescent, 39% of the Moon is Illuminated
Feb 5
Waxing Crescent
Feb 6
First Quarter
Feb 14
Full
Feb 22
Last Quarter
Mar 1
New

Hourly Weather History & Observations

Time (CST) Temp. Windchill Dew Point Humidity Pressure Visibility Wind Dir Wind Speed Gust Speed Precip Events Conditions
12:55 AM -15.0 °F - -20.9 °F 75% 30.61 in 10.0 mi Calm Calm - N/A   Overcast
1:55 AM -9.9 °F - -15.0 °F 78% 30.60 in 10.0 mi Calm Calm - N/A   Overcast
2:55 AM -9.0 °F -18.2 °F -14.1 °F 79% 30.61 in 10.0 mi WNW 3.5 mph - N/A   Overcast
3:55 AM -7.1 °F - -11.9 °F 79% 30.61 in 10.0 mi Calm Calm - N/A   Overcast
4:55 AM -6.0 °F - -11.0 °F 79% 30.61 in 10.0 mi Calm Calm - N/A   Overcast
5:55 AM -6.0 °F -18.6 °F -11.0 °F 79% 30.61 in 10.0 mi WNW 5.8 mph - N/A   Overcast
6:55 AM -5.1 °F -19.1 °F -11.0 °F 76% 30.59 in 10.0 mi NW 6.9 mph - N/A   Overcast
7:55 AM -4.0 °F -17.8 °F -9.9 °F 76% 30.59 in 10.0 mi NW 6.9 mph - N/A   Overcast
8:22 AM -4.0 °F -20.2 °F -9.9 °F 76% 30.46 in 10.0 mi NW 9.2 mph - N/A   Overcast
8:55 AM -4.0 °F -20.2 °F -9.9 °F 76% 30.59 in 5.0 mi NNW 9.2 mph - N/A   Haze
9:29 AM -4.0 °F -21.2 °F -9.9 °F 76% 30.47 in 1.8 mi WNW 10.4 mph - N/A   Haze
9:43 AM -5.1 °F -23.5 °F -11.0 °F 76% 30.47 in 3.0 mi WNW 11.5 mph - 0.00 in Snow Light Snow
9:55 AM -5.1 °F -21.5 °F -11.0 °F 76% 30.61 in 5.0 mi NW 9.2 mph - 0.00 in   Haze
9:58 AM -5.1 °F -23.5 °F -11.0 °F 76% 30.47 in 2.0 mi NW 11.5 mph - N/A   Haze
10:04 AM -5.1 °F -23.5 °F -11.0 °F 76% 30.47 in 1.2 mi WNW 11.5 mph - 0.00 in Snow Light Snow
10:14 AM -5.1 °F -21.5 °F -11.0 °F 76% 30.47 in 9.0 mi NW 9.2 mph - 0.00 in Snow Light Snow
10:55 AM -5.1 °F -23.5 °F -13.0 °F 69% 30.62 in 10.0 mi NNW 11.5 mph - 0.01 in   Overcast
11:55 AM -2.9 °F -16.5 °F -11.9 °F 65% 30.60 in 10.0 mi WNW 6.9 mph - N/A   Overcast
12:55 PM -2.9 °F -20.8 °F -13.0 °F 62% 30.58 in 10.0 mi West 11.5 mph - N/A   Overcast
1:14 PM -2.0 °F -18.7 °F -13.0 °F 60% 30.44 in 10.0 mi West 10.4 mph - N/A   Scattered Clouds
1:55 PM -2.9 °F -19.8 °F -13.0 °F 62% 30.56 in 10.0 mi NW 10.4 mph - N/A   Clear
2:55 PM -2.0 °F -15.4 °F -13.0 °F 60% 30.55 in 10.0 mi West 6.9 mph - N/A   Clear
3:31 PM -2.9 °F -21.6 °F -13.0 °F 62% 30.42 in 10.0 mi WNW 12.7 mph 18.4 mph N/A   Mostly Cloudy
3:55 PM -2.9 °F -20.8 °F -13.0 °F 62% 30.55 in 10.0 mi West 11.5 mph - N/A   Overcast
4:55 PM -4.0 °F -21.2 °F -11.9 °F 69% 30.54 in 10.0 mi West 10.4 mph - N/A   Overcast
5:55 PM -4.0 °F -19.0 °F -13.0 °F 65% 30.52 in 10.0 mi West 8.1 mph - N/A   Overcast
6:50 PM -5.8 °F -18.4 °F -13.0 °F 71% 30.38 in 10.0 mi WSW 5.8 mph - N/A   Scattered Clouds
6:55 PM -7.1 °F -19.9 °F -13.0 °F 75% 30.51 in 10.0 mi WSW 5.8 mph - N/A   Partly Cloudy
7:55 PM -8.0 °F -21.0 °F -14.1 °F 75% 30.49 in 10.0 mi West 5.8 mph - N/A   Clear
8:55 PM -9.0 °F -25.2 °F -15.0 °F 75% 30.48 in 10.0 mi West 8.1 mph - N/A   Clear
9:55 PM -9.0 °F -25.2 °F -15.0 °F 75% 30.48 in 10.0 mi West 8.1 mph - N/A   Clear
10:55 PM -9.9 °F -27.5 °F -16.1 °F 74% 30.47 in 10.0 mi West 9.2 mph - N/A   Clear
11:55 PM -11.0 °F -26.2 °F -16.1 °F 78% 30.45 in 10.0 mi West 6.9 mph - N/A   Clear